Regional Weather Roundup
Issued by NWS

Home | Current Version | Previous Version | Graphics & Text | Print | Product List | Glossary On
Versions: 1 2 3 4 5 6 7 8 9 10 11 12 13 14 15 16 17 18 19 20 21 22 23 24 25 26 27 28 29 30 31 32 33 34 35 36 37 38 39 40 41 42 43 44 45 46 47 48 49 50
000
ASUS43 KDMX 220001
RWRIA

WEATHER ROUNDUP FOR IOWA
NATIONAL WEATHER SERVICE DES MOINES IA
700 PM CDT MON AUG 21 2017

NOTE: "FAIR" INDICATES FEW OR NO CLOUDS BELOW 12,000 FEET WITH NO
SIGNIFICANT WEATHER AND/OR OBSTRUCTIONS TO VISIBILITY.

* - THESE STATIONS ARE NOT NWS STATIONS...THUS NOT UNDER NWS
QUALITY CONTROL.  THEY ALSO DO NOT REPORT WEATHER SUCH
AS PRECIPITATION OR FOG.

IAZ001>003-012>014-020>022-031>034-043>046-220100-
   NORTHWEST IOWA

CITY           SKY/WX    TMP DP  RH WIND       PRES   REMARKS
CARROLL *      CLOUDY    70  66  88 CALM      29.98S
CHEROKEE *     LGT RAIN  65  65  99 SW6       29.97R
DENISON *      PTSUNNY   70  63  78 E9        29.99F
LE MARS *      CLOUDY   104 N/A N/A SW5       29.98S
ORANGE CITY *  CLOUDY    66  64  94 N5        29.99R
SHELDON *      CLOUDY    64  63  94 W5        29.98F
SIOUX CITY     TSTM      67  66  97 S9        30.00R FOG
6HR MIN TEMP:  65; 6HR MAX TEMP:  81; 6HR PCP:  0.96;

SPENCER        CLOUDY    66  63  90 SE7       29.93F
6HR MIN TEMP:  64; 6HR MAX TEMP:  69; 6HR PCP:  1.46;

STORM LAKE *   CLOUDY    64  63  94 CALM      29.98R
$$

IAZ055>058-069>071-079>083-090>094-220100-
   SOUTHWEST IOWA

CITY           SKY/WX    TMP DP  RH WIND       PRES   REMARKS
ATLANTIC *     CLOUDY    70  68  94 NE8       29.95F
AUDUBON *      CLOUDY    70  64  83 E7        29.99F
CLARINDA *     CLOUDY    82  75  78 CALM      29.96F HX  89
COUNCIL BLFS * CLOUDY    79  77  94 E6        29.94F HX  83
CRESTON *      PTSUNNY   75  73  94 S3        29.98F
HARLAN  *      PTSUNNY   72  68  88 NE10      29.99F
LAMONI         PTSUNNY   75  70  84 S9        29.97F
6HR MIN TEMP:  75; 6HR MAX TEMP:  81;

RED OAK *      CLOUDY    81  77  89 CALM      29.93F HX  88
SHENANDOAH *   CLOUDY    82  75  78 CALM      29.94F HX  89
$$

IAZ047>049-059>061-072>074-084-220100-
   CENTRAL IOWA

CITY           SKY/WX    TMP DP  RH WIND       PRES   REMARKS
AMES           LGT RAIN  66  66 100 E8        29.97F
6HR MIN TEMP:  65; 6HR MAX TEMP:  81; 6HR PCP:  1.10;

ANKENY *       CLOUDY    66  64  94 N6G16     30.00F
BOONE *        CLOUDY    66  63  88 E13G18    29.97F
CHARITON *     MOSUNNY   75  68  78 SW9       29.95F
DES MOINES     TSTM      68  64  87 N17G25    29.99R FOG
6HR MIN TEMP:  68; 6HR MAX TEMP:  85; 6HR PCP:  0.09;

GRINNELL*      HVY RAIN  72  68  87 N15G25    30.03R
KNOXVILLE *    CLOUDY    79  68  69 W12       29.98R HX  81
MARSHALLTOWN   LGT RAIN  67  66  97 NW20G28   30.01R
6HR MIN TEMP:  66; 6HR MAX TEMP:  77; 6HR PCP:  0.37;

NEWTON *       FOG       68  64  88 N17G36    30.03R VSB 3/4
PELLA *        CLOUDY    79  66  65 W14       29.99R HX  81
PERRY *        PTSUNNY   66  66  97 E13G18    29.96F
$$

IAZ004>006-015-016-023>025-035-036-220100-
   NORTH CENTRAL IOWA

CITY           SKY/WX    TMP DP  RH WIND       PRES   REMARKS
ALGONA *       CLOUDY    66  64  94 SE6G13    29.92S
CLARION *      CLOUDY    64  64 100 E17G28    29.88F
ESTHERVILLE    CLOUDY    65  64  97 S7        29.94R
6HR MIN TEMP:  63; 6HR MAX TEMP:  67; 6HR PCP:  2.01;

FORT DODGE *   PTSUNNY   64  61  88 E13G23    29.90F
FOREST CITY *    N/A     64  64 100 S8        29.91F
WEBSTER CITY * LGT RAIN  64  63  94 E20       29.90F
IOWA FALLS *   LGT RAIN  65  64  97 NE12      30.00F
$$

IAZ007>011-017>019-026>030-037>042-050>054-066-220100-
   NORTHEAST IOWA

CITY           SKY/WX    TMP DP  RH WIND       PRES   REMARKS
CEDAR RAPIDS   CLOUDY    76  68  76 CALM      29.94F
6HR MIN TEMP:  70; 6HR MAX TEMP:  77; 6HR PCP: TRACE;

CHARLES CITY * RAIN      66  66 100 S3        30.02R
CLINTON *      CLOUDY    77  72  84 CALM      29.98F
DECORAH *      LGT RAIN  66  64  94 CALM      29.97S
DUBUQUE        CLOUDY    74  69  85 SW5       29.97F
6HR MIN TEMP:  70; 6HR MAX TEMP:  78;

MONTICELLO *   CLOUDY    73  70  88 CALM      29.95F
OELWEIN *      CLOUDY    70  68  94 N10       29.99R
WATERLOO       TSTM      68  66  93 NW25G31   30.01R FOG
6HR MIN TEMP:  68; 6HR MAX TEMP:  78; 6HR PCP:  0.17;

$$

IAZ064-065-067-068-078-220100-
   EAST CENTRAL IOWA

CITY           SKY/WX    TMP DP  RH WIND       PRES   REMARKS
DAVENPORT      CLOUDY    78  70  76 S6        29.99S HX  80
6HR MIN TEMP:  73; 6HR MAX TEMP:  81;

IOWA CITY      CLOUDY    78  70  76 NE8       29.97S HX  80
6HR MIN TEMP:  74; 6HR MAX TEMP:  82;

MUSCATINE *    PTCLDY    81  70  69 CALM      29.96S HX  84
QUAD CITIES    CLOUDY    78  70  76 S6        29.96F HX  80
6HR MIN TEMP:  75; 6HR MAX TEMP:  82;

$$

IAZ062-063-075>077-085>089-095>099-220100-
   SOUTHEAST IOWA

CITY           SKY/WX    TMP DP  RH WIND       PRES   REMARKS
BURLINGTON     CLOUDY    76  74  93 SW5       29.96F
6HR MIN TEMP:  72; 6HR MAX TEMP:  79;

FAIRFIELD *    CLOUDY    79  68  69 SW10G20   29.95F HX  81
FORT MADISON * CLOUDY    75  73  94 S9        29.97F
KEOKUK *       CLOUDY    77  73  88 S8        29.96F
OSKALOOSA *      N/A     78  68  71 SW14G22   29.94F HX  80
OTTUMWA        MOSUNNY   80  68  66 SW13G21   29.93F HX  83
6HR MIN TEMP:  77; 6HR MAX TEMP:  85;

WASHINGTON *   CLOUDY    81  70  69 W7G14     29.98S HX  84
$$

ABBREVIATIONS USED IN REMARKS
   TC - TEMPERATURES IN CELSIUS
  WCI - WIND CHILL INDEX
   HX - HEAT INDEX
  VSB - VISIBILITY
$$





USA.gov is the U.S. government's official web portal to all federal, state and local government web resources and services.